Hourly Data Report for January 14, 2022

TERRACE A
BRITISH COLUMBIA
Current Station Operator: NAVCAN

54°28'07.000" N
128°34'42.000" W
217.30 m
1068134
71951
YXT

Download Data

Hourly Data (January 2022)
Hourly Data Report for January 14, 2022
TIME
LST
Temp Definition
°C
Dew Point Definition
°C
Rel Hum Definition
%
Precip. Amount Definition
mm

Wind Dir Definition
10's deg

Wind Spd Definition
km/h
Visibility Definition
km
Stn Press Definition
kPa
Hmdx Definition


Wind Chill Definition


Weather Definition


00:00 0.2 0.2 100 LegendMM 17 9 2.4 99.82     Drizzle
01:00 0.3 0.3 100 LegendMM 12 3 2.4 99.80     Drizzle
02:00 0.4 0.4 100 LegendMM 15 5 2.4 99.79     Drizzle
03:00 0.2 0.2 100 LegendMM 10 4 3.2 99.79     Rain, Fog
04:00 0.4 0.4 100 LegendMM 36 2 3.2 99.74     Rain, Fog
05:00 0.3 0.3 100 LegendMM 10 4 4.0 99.71     Rain, Fog
06:00 0.3 0.3 100 LegendMM 12 4 4.8 99.64     Rain, Fog
07:00 0.6 0.6 100 LegendMM 35 4 4.8 99.56     Rain, Fog
08:00 0.3 0.3 100 LegendMM 23 4 1.6 99.44     Rain, Fog
09:00 0.6 0.6 100 LegendMM 11 5 1.6 99.34     Rain, Fog
10:00 0.6 0.6 100 LegendMM 11 4 8.1 99.31     Rain, Fog
11:00 1.1 1.1 100 LegendMM 7 12 8.1 99.25     Rain, Fog
12:00 1.5 1.5 100 LegendMM 30 8 4.0 99.14     Rain, Fog
13:00 2.1 2.1 100 LegendMM 6 8 1.2 98.95     Rain, Fog
14:00 2.7 2.7 100 LegendMM 14 14 8.1 98.90     Rain, Fog
15:00 2.8 2.8 100 LegendMM 16 15 4.8 98.83     Moderate Rain, Fog
16:00 3.5 3.5 100 LegendMM 15 16 6.4 98.77     Moderate Rain, Fog
17:00 3.0 3.0 100 LegendMM 16 16 6.4 98.71     Rain, Fog
18:00 4.1 3.8 98 LegendMM 16 22 6.4 98.70     Rain, Fog
19:00 4.4 3.6 94 LegendMM 18 32 LegendMM 98.66     Rain, Fog
20:00 4.0 3.5 96 LegendMM 15 29 8.1 98.64     Moderate Rain, Fog
21:00 4.2 3.0 91 LegendMM 17 32 8.1 98.61     Rain, Fog
22:00 4.3 3.1 92 LegendMM 17 49 11.3 98.54     Rain
23:00 4.2 3.1 92 LegendMM 18 41 8.1 98.60     Rain

Notes on Data Quality.

Legend

  • E = Estimated
  • M = Missing
  • NA = Not Available*
  • [empty] = Indicates an unobserved value
Date modified: